Main page
METAR-TAF:

METAR-TAF

Airports :

Oil platform

P11-b, Netherlands

latitude: 52-21-36N, longitude: 3-20-30E, elevation: 24 m

Current weather observation

The report was made 36 minutes ago, at 22:25 UTC
Wind 25 kt from the West/Southwest
Temperature 14°C
Humidity 88%
Pressure 1015 hPa
Visibility 10 km or more

METAR: EHPG 252225Z AUTO 25025KT 9999 ////// 14/12 Q1015

Time: 01:01 (23:01 UTC)


TAF: missing

Weather observations and forecasts of more than 4000 airports (METAR and TAF reports).

The available stations are represented by yellow and red dots on the map.

Hover mouse over dot to see the name of the station.

Then click to see weather observations and forecasts.

To change the map : click on the green buttons with a black cross to zoom in, on the green button with a dash to zoom out, or on the green arrows for adjacent maps.


METAR-TAF: